Location: *
(34.6780°N, 135.8310°E)
Time: 21:38:39
(UTC+00:00)

Cosmos 2341 Rocket - Pass Details

Date: 18 October 2019
Orbit: 968 x 1004 km, 82.9° (Epoch: 15 November)

Event Time Altitude Azimuth Distance (km) Brightness Sun altitude
Rises 19:53:16 0° 179° (S) 3,676 7.0 -15.5°
Reaches altitude 10° 19:55:47 10° 178° (S) 2,727 6.4 -15.0°
Maximum altitude 20:02:00 76° 94° (E) 1,009 4.2 -13.7°
Drops below altitude 10° 20:08:13 10° 10° (N) 2,721 6.4 -12.4°
Sets 20:10:44 0° 9° (N) 3,669 7.1 -11.9°
